Wind from 018 at 5 knots gusting 10

Air temperature 12.2° C
Dewpoint 6.9° C

Last reported at 2014-Apr-23 12:57 UTC.
Time now 2014-Apr-23 15:03 UTC

Location: N 34°08' W 117°57'.
View on Google Maps.

See reports from other nearby stations

Tides Stations Pressure Air Temp Water Temp Dewpoint Dewpoint depression Visibility Wind Speed Wind Dir Waves Ship positions

  
sailing weather and tide predictions

SANTA FE DAM CA US weather

date/time (UTC)wind fromknots sea level pressurealtimeterstation pressurevisibilityair tempwater tempwave heightnotes
2014-Apr-23 12:57 018 5 gusting 10 12.2
2014-Apr-23 11:57 043 4 gusting 9 12.2
2014-Apr-23 10:57 042 1 gusting 7 11.7
2014-Apr-23 09:57 076 0 gusting 5 10.6
2014-Apr-23 08:57 259 1 gusting 5 11.7
2014-Apr-23 07:57 120 1 gusting 5 12.8
2014-Apr-23 06:57 237 0 gusting 4 11.7
2014-Apr-23 05:57 030 1 gusting 4 13.3
2014-Apr-23 04:57 215 1 gusting 5 13.9
2014-Apr-23 03:57 214 2 gusting 6 14.4
2014-Apr-23 02:57 225 5 gusting 11 16.1
2014-Apr-23 01:57 221 7 gusting 13 19.4
2014-Apr-23 00:57 226 6 gusting 13 21.1
2014-Apr-22 23:57 240 7 gusting 18 23.3
2014-Apr-22 22:57 223 8 gusting 15 23.9
2014-Apr-22 21:57 246 6 gusting 14 24.4
2014-Apr-22 20:57 193 6 gusting 15 23.9
2014-Apr-22 19:57 228 6 gusting 11 23.3
2014-Apr-22 18:57 131 3 gusting 11 22.2
2014-Apr-22 17:57 110 4 gusting 8 20.0
2014-Apr-22 16:57 252 6 gusting 9 17.2
2014-Apr-22 15:57 255 2 gusting 5 16.7
2014-Apr-22 14:57 176 0 gusting 4 16.7
2014-Apr-22 13:57 018 0 gusting 4 15.0
2014-Apr-22 12:57 222 0 gusting 5 15.0
2014-Apr-22 11:57 174 1 gusting 3 15.0
2014-Apr-22 10:57 138 0 gusting 4 15.6
2014-Apr-22 09:57 196 1 gusting 4 15.0
2014-Apr-22 08:57 205 2 gusting 4 15.0
2014-Apr-22 07:57 208 1 gusting 3 14.4
2014-Apr-22 06:57 236 2 gusting 5 15.0
2014-Apr-22 05:57 185 3 gusting 4 15.6
2014-Apr-22 04:57 190 2 gusting 7 16.7
2014-Apr-22 03:57 216 4 gusting 8 18.3
2014-Apr-22 02:57 227 5 gusting 8 20.6
2014-Apr-22 01:57 220 4 gusting 11 23.9
2014-Apr-22 00:57 242 7 gusting 14 26.7
2014-Apr-21 23:57 221 6 gusting 13 30.0
2014-Apr-21 22:57 198 6 gusting 13 31.1
2014-Apr-21 21:57 236 7 gusting 14 30.6
2014-Apr-21 20:57 213 6 gusting 14 31.7
2014-Apr-21 19:57 236 5 gusting 10 30.0
2014-Apr-21 18:57 224 4 gusting 9 28.9
2014-Apr-21 17:57 244 4 gusting 8 26.1
2014-Apr-21 16:57 007 1 gusting 6 23.9
2014-Apr-21 15:57 089 2 gusting 6 19.4